Location: Bieujac
(44.5398°N, 0.1549°W)
Time: 10:06:11
(UTC+00:00)

Cosmos 2360 Rocket - Pass Details

Date: 17 November 2019
Orbit: 832 x 847 km, 71.0° (Epoch: 08 December)

Event Time Altitude Azimuth Distance (km) Brightness Sun altitude
Exits shadow 04:49:34 - 347° (NNW) 2,778 4.7 -23.0°
Reaches altitude 10° 04:50:28 10° 351° (N) 2,479 4.5 -22.8°
Maximum altitude 04:55:30 31° 53° (NE) 1,439 3.8 -21.9°
Drops below altitude 10° 05:00:30 10° 115° (ESE) 2,466 5.6 -21.0°
Sets 05:03:13 0° 126° (SE) 3,396 6.4 -20.5°
